C/2015 D3 ( PanSTARRS )

Japanese version
Home page
Updated on April 1, 2017

---------------------------------------------------------------------

* Profile

Discovery Date February 19, 2015
Magnitude 20.4 mag
Discoverer Pan-STARRS 1 telescope (Haleakala)

* Pictures

* Orbital Elements

Epoch 2016 May 12.0 TT = JDT 2457520.5
T 2016 Apr. 30.75462 TT                                 MPCW
q   8.1488339            (2000.0)            P               Q
z  -0.0003094      Peri.    2.84785     -0.90713776     +0.28890841
 +/-0.0000013      Node   156.98046     +0.36899155     +0.19642160
e   1.0025214      Incl.  128.50940     +0.20235199     +0.93699012
From 217 observations 2015 Feb. 17-2017 Feb. 24, mean residual 0".5.

* Magnitudes Graph

        m1 = 5.5 + 5 log d + 10.0 log r

---------------------------------------------------------------------

The orbital elements are published on M.P.E.C. 2017-E59.
The magnitudes graphs are made with Comet for Windows.

---------------------------------------------------------------------

Copyright(C) Seiichi Yoshida (comet@aerith.net). All rights reserved.